Year,Month,Day,Hour,Minute,Value (Times are PST for temperature in C)
2007,09,05,00,00,13.50
2007,09,05,00,01,13.50
2007,09,05,00,02,13.50
2007,09,05,00,03,13.50
2007,09,05,00,04,13.50
2007,09,05,00,05,13.50
2007,09,05,00,06,13.50
2007,09,05,00,07,13.50
2007,09,05,00,08,13.50
2007,09,05,00,09,13.40
2007,09,05,00,10,13.40
2007,09,05,00,11,13.40
2007,09,05,00,12,13.40
2007,09,05,00,13,13.40
2007,09,05,00,14,13.40
2007,09,05,00,15,13.40
2007,09,05,00,16,13.40
2007,09,05,00,17,13.40
2007,09,05,00,18,13.40
2007,09,05,00,19,13.30
2007,09,05,00,20,13.30
2007,09,05,00,21,13.30
2007,09,05,00,22,13.30
2007,09,05,00,23,13.30
2007,09,05,00,24,13.30
2007,09,05,00,25,13.30
2007,09,05,00,26,13.30
2007,09,05,00,27,13.30
2007,09,05,00,28,13.20
2007,09,05,00,29,13.20
2007,09,05,00,30,13.20
2007,09,05,00,31,13.20
2007,09,05,00,32,13.10
2007,09,05,00,33,13.10
2007,09,05,00,34,13.10
2007,09,05,00,35,13.10
2007,09,05,00,36,13.10
2007,09,05,00,37,13.10
2007,09,05,00,38,13.10
2007,09,05,00,39,13.10
2007,09,05,00,40,13.10
2007,09,05,00,41,13.00
2007,09,05,00,42,12.90
2007,09,05,00,43,12.90
2007,09,05,00,44,12.80
2007,09,05,00,45,12.80
2007,09,05,00,46,12.80
2007,09,05,00,47,12.80
2007,09,05,00,48,12.80
2007,09,05,00,49,12.70
2007,09,05,00,50,12.70
2007,09,05,00,51,12.70
2007,09,05,00,52,12.70
2007,09,05,00,53,12.70
2007,09,05,00,54,12.80
2007,09,05,00,55,12.80
2007,09,05,00,56,12.80
2007,09,05,00,57,12.80
2007,09,05,00,58,12.80
2007,09,05,00,59,12.80
2007,09,05,01,00,12.90
2007,09,05,01,01,12.90
2007,09,05,01,02,12.90
2007,09,05,01,03,12.80
2007,09,05,01,04,12.80
2007,09,05,01,05,12.80
2007,09,05,01,06,12.80
2007,09,05,01,07,12.80
2007,09,05,01,08,12.80
2007,09,05,01,09,12.80
2007,09,05,01,10,12.80
2007,09,05,01,11,12.90
2007,09,05,01,12,12.90
2007,09,05,01,13,12.90
2007,09,05,01,14,13.00
2007,09,05,01,15,13.00
2007,09,05,01,16,13.00
2007,09,05,01,17,13.00
2007,09,05,01,18,13.10
2007,09,05,01,19,13.10
2007,09,05,01,20,13.10
2007,09,05,01,21,13.10
2007,09,05,01,22,13.10
2007,09,05,01,23,13.10
2007,09,05,01,24,13.10
2007,09,05,01,25,13.10
2007,09,05,01,26,13.10
2007,09,05,01,27,13.10
2007,09,05,01,28,13.10
2007,09,05,01,29,13.00
2007,09,05,01,30,13.00
2007,09,05,01,31,12.90
2007,09,05,01,32,12.90
2007,09,05,01,33,12.90
2007,09,05,01,34,12.80
2007,09,05,01,35,12.80
2007,09,05,01,36,12.80
2007,09,05,01,37,12.80
2007,09,05,01,38,12.80
2007,09,05,01,39,12.80
2007,09,05,01,40,12.80
2007,09,05,01,41,12.80
2007,09,05,01,42,12.90
2007,09,05,01,43,12.90
2007,09,05,01,44,13.00
2007,09,05,01,45,13.00
2007,09,05,01,46,13.00
2007,09,05,01,47,13.00
2007,09,05,01,48,13.00
2007,09,05,01,49,13.00
2007,09,05,01,50,13.00
2007,09,05,01,51,13.00
2007,09,05,01,52,12.90
2007,09,05,01,53,12.80
2007,09,05,01,54,12.80
2007,09,05,01,55,12.60
2007,09,05,01,56,12.60
2007,09,05,01,57,12.70
2007,09,05,01,58,12.70
2007,09,05,01,59,12.70
2007,09,05,02,00,12.70
2007,09,05,02,01,12.70
2007,09,05,02,02,12.70
2007,09,05,02,03,12.70
2007,09,05,02,04,12.70
2007,09,05,02,05,12.70
2007,09,05,02,06,12.70
2007,09,05,02,07,12.70
2007,09,05,02,08,12.70
2007,09,05,02,09,12.70
2007,09,05,02,10,12.70
2007,09,05,02,11,12.70
2007,09,05,02,12,12.70
2007,09,05,02,13,12.80
2007,09,05,02,14,12.80
2007,09,05,02,15,12.70
2007,09,05,02,16,12.60
2007,09,05,02,17,12.50
2007,09,05,02,18,12.40
2007,09,05,02,19,12.40
2007,09,05,02,20,12.40
2007,09,05,02,21,12.40
2007,09,05,02,22,12.40
2007,09,05,02,23,12.40
2007,09,05,02,24,12.40
2007,09,05,02,25,12.30
2007,09,05,02,26,12.40
2007,09,05,02,27,12.40
2007,09,05,02,28,12.40
2007,09,05,02,29,12.40
2007,09,05,02,30,12.30
2007,09,05,02,31,12.30
2007,09,05,02,32,12.30
2007,09,05,02,33,12.30
2007,09,05,02,34,12.40
2007,09,05,02,35,12.40
2007,09,05,02,36,12.40
2007,09,05,02,37,12.40
2007,09,05,02,38,12.40
2007,09,05,02,39,12.30
2007,09,05,02,40,12.30
2007,09,05,02,41,12.30
2007,09,05,02,42,12.30
2007,09,05,02,43,12.30
2007,09,05,02,44,12.30
2007,09,05,02,45,12.30
2007,09,05,02,46,12.30
2007,09,05,02,47,12.30
2007,09,05,02,48,12.30
2007,09,05,02,49,12.30
2007,09,05,02,50,12.30
2007,09,05,02,51,12.30
2007,09,05,02,52,12.30
2007,09,05,02,53,12.30
2007,09,05,02,54,12.30
2007,09,05,02,55,12.30
2007,09,05,02,56,12.30
2007,09,05,02,57,12.30
2007,09,05,02,58,12.30
2007,09,05,02,59,12.30
2007,09,05,03,00,12.20
2007,09,05,03,01,12.30
2007,09,05,03,02,12.30
2007,09,05,03,03,12.30
2007,09,05,03,04,12.30
2007,09,05,03,05,12.30
2007,09,05,03,06,12.30
2007,09,05,03,07,12.20
2007,09,05,03,08,12.10
2007,09,05,03,09,12.00
2007,09,05,03,10,12.00
2007,09,05,03,11,12.00
2007,09,05,03,12,12.00
2007,09,05,03,13,12.00
2007,09,05,03,14,12.00
2007,09,05,03,15,12.00
2007,09,05,03,16,12.10
2007,09,05,03,17,12.10
2007,09,05,03,18,12.10
2007,09,05,03,19,12.20
2007,09,05,03,20,12.20
2007,09,05,03,21,12.30
2007,09,05,03,22,12.30
2007,09,05,03,23,12.30
2007,09,05,03,24,12.30
2007,09,05,03,25,12.30
2007,09,05,03,26,12.20
2007,09,05,03,27,12.20
2007,09,05,03,28,12.20
2007,09,05,03,29,12.20
2007,09,05,03,30,12.10
2007,09,05,03,31,12.10
2007,09,05,03,32,12.10
2007,09,05,03,33,12.10
2007,09,05,03,34,12.00
2007,09,05,03,35,12.00
2007,09,05,03,36,12.00
2007,09,05,03,37,12.00
2007,09,05,03,38,12.00
2007,09,05,03,39,11.90
2007,09,05,03,40,11.90
2007,09,05,03,41,11.90
2007,09,05,03,42,11.80
2007,09,05,03,43,11.80
2007,09,05,03,44,11.80
2007,09,05,03,45,11.80
2007,09,05,03,46,11.80
2007,09,05,03,47,11.80
2007,09,05,03,48,11.80
2007,09,05,03,49,11.80
2007,09,05,03,50,11.80
2007,09,05,03,51,11.80
2007,09,05,03,52,11.80
2007,09,05,03,53,11.80
2007,09,05,03,54,11.80
2007,09,05,03,55,11.80
2007,09,05,03,56,11.80
2007,09,05,03,57,11.80
2007,09,05,03,58,11.80
2007,09,05,03,59,11.80
2007,09,05,04,00,11.80
2007,09,05,04,01,11.80
2007,09,05,04,02,11.80
2007,09,05,04,03,11.80
2007,09,05,04,04,11.80
2007,09,05,04,05,11.80
2007,09,05,04,06,11.80
2007,09,05,04,07,11.90
2007,09,05,04,08,11.90
2007,09,05,04,09,11.90
2007,09,05,04,10,11.90
2007,09,05,04,11,11.90
2007,09,05,04,12,11.90
2007,09,05,04,13,11.90
2007,09,05,04,14,11.90
2007,09,05,04,15,11.90
2007,09,05,04,16,11.90
2007,09,05,04,17,11.90
2007,09,05,04,18,11.90
2007,09,05,04,19,11.90
2007,09,05,04,20,11.90
2007,09,05,04,21,11.90
2007,09,05,04,22,11.90
2007,09,05,04,23,11.90
2007,09,05,04,24,11.90
2007,09,05,04,25,11.90
2007,09,05,04,26,11.90
2007,09,05,04,27,11.90
2007,09,05,04,28,11.90
2007,09,05,04,29,11.80
2007,09,05,04,30,11.80
2007,09,05,04,31,11.80
2007,09,05,04,32,11.80
2007,09,05,04,33,11.80
2007,09,05,04,34,11.80
2007,09,05,04,35,11.80
2007,09,05,04,36,11.80
2007,09,05,04,37,11.70
2007,09,05,04,38,11.70
2007,09,05,04,39,11.80
2007,09,05,04,40,11.80
2007,09,05,04,41,11.80
2007,09,05,04,42,11.80
2007,09,05,04,43,11.70
2007,09,05,04,44,11.70
2007,09,05,04,45,11.70
2007,09,05,04,46,11.60
2007,09,05,04,47,11.60
2007,09,05,04,48,11.60
2007,09,05,04,49,11.60
2007,09,05,04,50,11.60
2007,09,05,04,51,11.60
2007,09,05,04,52,11.60
2007,09,05,04,53,11.60
2007,09,05,04,54,11.60
2007,09,05,04,55,11.60
2007,09,05,04,56,11.60
2007,09,05,04,57,11.60
2007,09,05,04,58,11.60
2007,09,05,04,59,11.60
2007,09,05,05,00,11.60
2007,09,05,05,01,11.60
2007,09,05,05,02,11.60
2007,09,05,05,03,11.60
2007,09,05,05,04,11.60
2007,09,05,05,05,11.60
2007,09,05,05,06,11.60
2007,09,05,05,07,11.60
2007,09,05,05,08,11.60
2007,09,05,05,09,11.60
2007,09,05,05,10,11.60
2007,09,05,05,11,11.60
2007,09,05,05,12,11.60
2007,09,05,05,13,11.60
2007,09,05,05,14,11.60
2007,09,05,05,15,11.60
2007,09,05,05,16,11.60
2007,09,05,05,17,11.60
2007,09,05,05,18,11.60
2007,09,05,05,19,11.70
2007,09,05,05,20,11.70
2007,09,05,05,21,11.70
2007,09,05,05,22,11.70
2007,09,05,05,23,11.60
2007,09,05,05,24,11.60
2007,09,05,05,25,11.60
2007,09,05,05,26,11.60
2007,09,05,05,27,11.60
2007,09,05,05,28,11.60
2007,09,05,05,29,11.60
2007,09,05,05,30,11.60
2007,09,05,05,31,11.60
2007,09,05,05,32,11.70
2007,09,05,05,33,11.70
2007,09,05,05,34,11.70
2007,09,05,05,35,11.70
2007,09,05,05,36,11.80
2007,09,05,05,37,11.80
2007,09,05,05,38,11.80
2007,09,05,05,39,11.80
2007,09,05,05,40,11.80
2007,09,05,05,41,11.80
2007,09,05,05,42,11.80
2007,09,05,05,43,11.80
2007,09,05,05,44,11.80
2007,09,05,05,45,11.80
2007,09,05,05,46,11.80
2007,09,05,05,47,11.80
2007,09,05,05,48,11.80
2007,09,05,05,49,11.80
2007,09,05,05,50,11.90
2007,09,05,05,51,11.90
2007,09,05,05,52,11.90
2007,09,05,05,53,11.90
2007,09,05,05,54,11.90
2007,09,05,05,55,11.90
2007,09,05,05,56,11.90
2007,09,05,05,57,11.90
2007,09,05,05,58,11.90
2007,09,05,05,59,11.90
2007,09,05,06,00,11.90
2007,09,05,06,01,11.90
2007,09,05,06,02,11.90
2007,09,05,06,03,11.80
2007,09,05,06,04,11.80
2007,09,05,06,05,11.80
2007,09,05,06,06,11.80
2007,09,05,06,07,11.80
2007,09,05,06,08,11.80
2007,09,05,06,09,11.80
2007,09,05,06,10,11.80
2007,09,05,06,11,11.80
2007,09,05,06,12,11.90
2007,09,05,06,13,11.90
2007,09,05,06,14,11.90
2007,09,05,06,15,11.90
2007,09,05,06,16,11.90
2007,09,05,06,17,11.90
2007,09,05,06,18,11.90
2007,09,05,06,19,11.90
2007,09,05,06,20,11.90
2007,09,05,06,21,11.90
2007,09,05,06,22,11.90
2007,09,05,06,23,11.90
2007,09,05,06,24,11.90
2007,09,05,06,25,11.90
2007,09,05,06,26,11.80
2007,09,05,06,27,11.80
2007,09,05,06,28,11.80
2007,09,05,06,29,11.80
2007,09,05,06,30,11.80
2007,09,05,06,31,11.80
2007,09,05,06,32,11.80
2007,09,05,06,33,11.80
2007,09,05,06,34,11.80
2007,09,05,06,35,11.80
2007,09,05,06,36,11.80
2007,09,05,06,37,11.80
2007,09,05,06,38,11.80
2007,09,05,06,39,11.80
2007,09,05,06,40,11.80
2007,09,05,06,41,11.80
2007,09,05,06,42,11.80
2007,09,05,06,43,11.80
2007,09,05,06,44,11.80
2007,09,05,06,45,11.80
2007,09,05,06,46,11.80
2007,09,05,06,47,11.80
2007,09,05,06,48,11.70
2007,09,05,06,49,11.70
2007,09,05,06,50,11.70
2007,09,05,06,51,11.60
2007,09,05,06,52,11.60
2007,09,05,06,53,11.60
2007,09,05,06,54,11.60
2007,09,05,06,55,11.60
2007,09,05,06,56,11.60
2007,09,05,06,57,11.60
2007,09,05,06,58,11.60
2007,09,05,06,59,11.60
2007,09,05,07,00,11.60
2007,09,05,07,01,11.60
2007,09,05,07,02,11.60
2007,09,05,07,03,11.60
2007,09,05,07,04,11.60
2007,09,05,07,05,11.60
2007,09,05,07,06,11.60
2007,09,05,07,07,11.60
2007,09,05,07,08,11.60
2007,09,05,07,09,11.60
2007,09,05,07,10,11.60
2007,09,05,07,11,11.60
2007,09,05,07,12,11.60
2007,09,05,07,13,11.60
2007,09,05,07,14,11.60
2007,09,05,07,15,11.60
2007,09,05,07,16,11.60
2007,09,05,07,17,11.60
2007,09,05,07,18,11.60
2007,09,05,07,19,11.70
2007,09,05,07,20,11.70
2007,09,05,07,21,11.70
2007,09,05,07,22,11.70
2007,09,05,07,23,11.70
2007,09,05,07,24,11.70
2007,09,05,07,25,11.70
2007,09,05,07,26,11.80
2007,09,05,07,27,11.80
2007,09,05,07,28,11.80
2007,09,05,07,29,11.80
2007,09,05,07,30,11.90
2007,09,05,07,31,11.90
2007,09,05,07,32,12.00
2007,09,05,07,33,12.00
2007,09,05,07,34,12.10
2007,09,05,07,35,12.10
2007,09,05,07,36,12.20
2007,09,05,07,37,12.20
2007,09,05,07,38,12.20
2007,09,05,07,39,12.20
2007,09,05,07,40,12.20
2007,09,05,07,41,12.20
2007,09,05,07,42,12.30
2007,09,05,07,43,12.20
2007,09,05,07,44,12.20
2007,09,05,07,45,12.20
2007,09,05,07,46,12.30
2007,09,05,07,47,12.30
2007,09,05,07,48,12.30
2007,09,05,07,49,12.30
2007,09,05,07,50,12.40
2007,09,05,07,51,12.50
2007,09,05,07,52,12.50
2007,09,05,07,53,12.50
2007,09,05,07,54,12.60
2007,09,05,07,55,12.60
2007,09,05,07,56,12.60
2007,09,05,07,57,12.60
2007,09,05,07,58,12.60
2007,09,05,07,59,12.60
2007,09,05,08,00,12.60
2007,09,05,08,01,12.50
2007,09,05,08,02,12.50
2007,09,05,08,03,12.50
2007,09,05,08,04,12.50
2007,09,05,08,05,12.60
2007,09,05,08,06,12.60
2007,09,05,08,07,12.60
2007,09,05,08,08,12.60
2007,09,05,08,09,12.60
2007,09,05,08,10,12.70
2007,09,05,08,11,12.70
2007,09,05,08,12,12.70
2007,09,05,08,13,12.70
2007,09,05,08,14,12.80
2007,09,05,08,15,12.80
2007,09,05,08,16,12.80
2007,09,05,08,17,12.80
2007,09,05,08,18,12.80
2007,09,05,08,19,12.80
2007,09,05,08,20,12.90
2007,09,05,08,21,12.90
2007,09,05,08,22,12.90
2007,09,05,08,23,13.00
2007,09,05,08,24,13.00
2007,09,05,08,25,13.00
2007,09,05,08,26,13.00
2007,09,05,08,27,13.00
2007,09,05,08,28,13.00
2007,09,05,08,29,13.00
2007,09,05,08,30,13.00
2007,09,05,08,31,13.00
2007,09,05,08,32,13.00
2007,09,05,08,33,13.00
2007,09,05,08,34,13.10
2007,09,05,08,35,13.10
2007,09,05,08,36,13.10
2007,09,05,08,37,13.20
2007,09,05,08,38,13.20
2007,09,05,08,39,13.30
2007,09,05,08,40,13.30
2007,09,05,08,41,13.30
2007,09,05,08,42,13.30
2007,09,05,08,43,13.40
2007,09,05,08,44,13.40
2007,09,05,08,45,13.50
2007,09,05,08,46,13.50
2007,09,05,08,47,13.50
2007,09,05,08,48,13.60
2007,09,05,08,49,13.60
2007,09,05,08,50,13.60
2007,09,05,08,51,13.70
2007,09,05,08,52,13.70
2007,09,05,08,53,13.70
2007,09,05,08,54,13.70
2007,09,05,08,55,13.70
2007,09,05,08,56,13.80
2007,09,05,08,57,13.80
2007,09,05,08,58,13.90
2007,09,05,08,59,13.90
2007,09,05,09,00,13.90
2007,09,05,09,01,13.90
2007,09,05,09,02,13.90
2007,09,05,09,03,13.90
2007,09,05,09,04,13.90
2007,09,05,09,05,14.00
2007,09,05,09,06,14.00
2007,09,05,09,07,14.00
2007,09,05,09,08,14.00
2007,09,05,09,09,14.00
2007,09,05,09,10,14.00
2007,09,05,09,11,14.00
2007,09,05,09,12,14.00
2007,09,05,09,13,14.00
2007,09,05,09,14,14.10
2007,09,05,09,15,14.10
2007,09,05,09,16,14.10
2007,09,05,09,17,14.20
2007,09,05,09,18,14.20
2007,09,05,09,19,14.20
2007,09,05,09,20,14.20
2007,09,05,09,21,14.20
2007,09,05,09,22,14.20
2007,09,05,09,23,14.20
2007,09,05,09,24,14.20
2007,09,05,09,25,14.20
2007,09,05,09,26,14.20
2007,09,05,09,27,14.20
2007,09,05,09,28,14.20
2007,09,05,09,29,14.20
2007,09,05,09,30,14.30
2007,09,05,09,31,14.40
2007,09,05,09,32,14.40
2007,09,05,09,33,14.50
2007,09,05,09,34,14.50
2007,09,05,09,35,14.60
2007,09,05,09,36,14.70
2007,09,05,09,37,14.70
2007,09,05,09,38,14.80
2007,09,05,09,39,14.80
2007,09,05,09,40,14.90
2007,09,05,09,41,14.90
2007,09,05,09,42,14.90
2007,09,05,09,43,14.90
2007,09,05,09,44,14.90
2007,09,05,09,45,14.90
2007,09,05,09,46,14.90
2007,09,05,09,47,14.90
2007,09,05,09,48,14.90
2007,09,05,09,49,14.90
2007,09,05,09,50,14.90
2007,09,05,09,51,14.90
2007,09,05,09,52,14.90
2007,09,05,09,53,14.90
2007,09,05,09,54,14.90
2007,09,05,09,55,14.90
2007,09,05,09,56,14.90
2007,09,05,09,57,15.00
2007,09,05,09,58,15.00
2007,09,05,09,59,15.00
2007,09,05,10,00,14.90
2007,09,05,10,01,14.90
2007,09,05,10,02,14.90
2007,09,05,10,03,14.80
2007,09,05,10,04,14.80
2007,09,05,10,05,14.80
2007,09,05,10,06,14.80
2007,09,05,10,07,14.80
2007,09,05,10,08,14.90
2007,09,05,10,09,14.90
2007,09,05,10,10,14.90
2007,09,05,10,11,14.90
2007,09,05,10,12,14.90
2007,09,05,10,13,14.90
2007,09,05,10,14,15.00
2007,09,05,10,15,14.90
2007,09,05,10,16,15.00
2007,09,05,10,17,15.00
2007,09,05,10,18,15.00
2007,09,05,10,19,15.10
2007,09,05,10,20,15.20
2007,09,05,10,21,15.20
2007,09,05,10,22,15.30
2007,09,05,10,23,15.30
2007,09,05,10,24,15.40
2007,09,05,10,25,15.50
2007,09,05,10,26,15.50
2007,09,05,10,27,15.60
2007,09,05,10,28,15.70
2007,09,05,10,29,15.80
2007,09,05,10,30,16.10
2007,09,05,10,31,16.20
2007,09,05,10,32,16.30
2007,09,05,10,33,16.40
2007,09,05,10,34,16.50
2007,09,05,10,35,16.60
2007,09,05,10,36,16.70
2007,09,05,10,37,16.80
2007,09,05,10,38,16.90
2007,09,05,10,39,16.90
2007,09,05,10,40,17.10
2007,09,05,10,41,17.10
2007,09,05,10,42,17.10
2007,09,05,10,43,17.30
2007,09,05,10,44,17.30
2007,09,05,10,45,17.30
2007,09,05,10,46,17.30
2007,09,05,10,47,17.30
2007,09,05,10,48,17.30
2007,09,05,10,49,17.30
2007,09,05,10,50,17.30
2007,09,05,10,51,17.30
2007,09,05,10,52,17.40
2007,09,05,10,53,17.40
2007,09,05,10,54,17.50
2007,09,05,10,55,17.50
2007,09,05,10,56,17.50
2007,09,05,10,57,17.50
2007,09,05,10,58,17.50
2007,09,05,10,59,17.50
2007,09,05,11,00,17.50
2007,09,05,11,01,17.50
2007,09,05,11,02,17.60
2007,09,05,11,03,17.70
2007,09,05,11,04,17.80
2007,09,05,11,05,17.90
2007,09,05,11,06,17.90
2007,09,05,11,07,17.90
2007,09,05,11,08,18.00
2007,09,05,11,09,18.10
2007,09,05,11,10,18.10
2007,09,05,11,11,18.10
2007,09,05,11,12,18.10
2007,09,05,11,13,18.10
2007,09,05,11,14,18.10
2007,09,05,11,15,17.90
2007,09,05,11,16,17.90
2007,09,05,11,17,17.90
2007,09,05,11,18,17.90
2007,09,05,11,19,17.90
2007,09,05,11,20,17.90
2007,09,05,11,21,18.10
2007,09,05,11,22,18.10
2007,09,05,11,23,18.10
2007,09,05,11,24,18.10
2007,09,05,11,25,18.10
2007,09,05,11,26,18.10
2007,09,05,11,27,18.10
2007,09,05,11,28,18.10
2007,09,05,11,29,18.10
2007,09,05,11,30,18.10
2007,09,05,11,31,18.10
2007,09,05,11,32,18.10
2007,09,05,11,33,18.20
2007,09,05,11,34,18.30
2007,09,05,11,35,18.30
2007,09,05,11,36,18.40
2007,09,05,11,37,18.40
2007,09,05,11,38,18.40
2007,09,05,11,39,18.50
2007,09,05,11,40,18.60
2007,09,05,11,41,18.60
2007,09,05,11,42,18.60
2007,09,05,11,43,18.60
2007,09,05,11,44,18.70
2007,09,05,11,45,18.80
2007,09,05,11,46,18.90
2007,09,05,11,47,18.90
2007,09,05,11,48,18.90
2007,09,05,11,49,19.00
2007,09,05,11,50,19.10
2007,09,05,11,51,19.10
2007,09,05,11,52,19.10
2007,09,05,11,53,19.10
2007,09,05,11,54,19.20
2007,09,05,11,55,19.30
2007,09,05,11,56,19.30
2007,09,05,11,57,19.30
2007,09,05,11,58,19.20
2007,09,05,11,59,19.20
2007,09,05,12,00,19.10
2007,09,05,12,01,19.10
2007,09,05,12,02,19.00
2007,09,05,12,03,18.90
2007,09,05,12,04,18.90
2007,09,05,12,05,18.80
2007,09,05,12,06,18.90
2007,09,05,12,07,18.90
2007,09,05,12,08,19.10
2007,09,05,12,09,19.10
2007,09,05,12,10,19.10
2007,09,05,12,11,19.10
2007,09,05,12,12,19.10
2007,09,05,12,13,19.10
2007,09,05,12,14,19.10
2007,09,05,12,15,19.10
2007,09,05,12,16,19.10
2007,09,05,12,17,19.10
2007,09,05,12,18,19.10
2007,09,05,12,19,19.20
2007,09,05,12,20,19.30
2007,09,05,12,21,19.40
2007,09,05,12,22,19.30
2007,09,05,12,23,19.40
2007,09,05,12,24,19.50
2007,09,05,12,25,19.50
2007,09,05,12,26,19.40
2007,09,05,12,27,19.40
2007,09,05,12,28,19.40
2007,09,05,12,29,19.40
2007,09,05,12,30,19.40
2007,09,05,12,31,19.30
2007,09,05,12,32,19.30
2007,09,05,12,33,19.40
2007,09,05,12,34,19.40
2007,09,05,12,35,19.40
2007,09,05,12,36,19.50
2007,09,05,12,37,19.60
2007,09,05,12,38,19.70
2007,09,05,12,39,19.70
2007,09,05,12,40,19.80
2007,09,05,12,41,19.80
2007,09,05,12,42,19.80
2007,09,05,12,43,19.80
2007,09,05,12,44,19.70
2007,09,05,12,45,19.70
2007,09,05,12,46,19.70
2007,09,05,12,47,19.70
2007,09,05,12,48,19.90
2007,09,05,12,49,19.90
2007,09,05,12,50,19.90
2007,09,05,12,51,19.80
2007,09,05,12,52,19.80
2007,09,05,12,53,19.80
2007,09,05,12,54,19.80
2007,09,05,12,55,19.80
2007,09,05,12,56,19.80
2007,09,05,12,57,19.80
2007,09,05,12,58,19.80
2007,09,05,12,59,19.80
2007,09,05,13,00,19.70
2007,09,05,13,01,19.50
2007,09,05,13,02,19.40
2007,09,05,13,03,19.30
2007,09,05,13,04,19.20
2007,09,05,13,05,19.20
2007,09,05,13,06,19.20
2007,09,05,13,07,19.30
2007,09,05,13,08,19.30
2007,09,05,13,09,19.20
2007,09,05,13,10,19.10
2007,09,05,13,11,19.10
2007,09,05,13,12,19.20
2007,09,05,13,13,19.30
2007,09,05,13,14,19.40
2007,09,05,13,15,19.40
2007,09,05,13,16,19.40
2007,09,05,13,17,19.50
2007,09,05,13,18,19.40
2007,09,05,13,19,19.30
2007,09,05,13,20,19.30
2007,09,05,13,21,19.20
2007,09,05,13,22,19.20
2007,09,05,13,23,19.20
2007,09,05,13,24,19.10
2007,09,05,13,25,19.00
2007,09,05,13,26,18.90
2007,09,05,13,27,18.80
2007,09,05,13,28,18.80
2007,09,05,13,29,18.80
2007,09,05,13,30,18.90
2007,09,05,13,31,18.90
2007,09,05,13,32,18.70
2007,09,05,13,33,18.80
2007,09,05,13,34,18.90
2007,09,05,13,35,18.90
2007,09,05,13,36,18.80
2007,09,05,13,37,18.80
2007,09,05,13,38,18.90
2007,09,05,13,39,19.00
2007,09,05,13,40,19.10
2007,09,05,13,41,19.30
2007,09,05,13,42,19.30
2007,09,05,13,43,19.40
2007,09,05,13,44,19.40
2007,09,05,13,45,19.20
2007,09,05,13,46,19.20
2007,09,05,13,47,19.30
2007,09,05,13,48,19.40
2007,09,05,13,49,19.40
2007,09,05,13,50,19.30
2007,09,05,13,51,19.30
2007,09,05,13,52,19.30
2007,09,05,13,53,19.30
2007,09,05,13,54,19.30
2007,09,05,13,55,19.30
2007,09,05,13,56,19.30
2007,09,05,13,57,19.30
2007,09,05,13,58,19.30
2007,09,05,13,59,19.30
2007,09,05,14,00,19.30
2007,09,05,14,01,19.40
2007,09,05,14,02,19.40
2007,09,05,14,03,19.40
2007,09,05,14,04,19.40
2007,09,05,14,05,19.30
2007,09,05,14,06,19.40
2007,09,05,14,07,19.40
2007,09,05,14,08,19.40
2007,09,05,14,09,19.40
2007,09,05,14,10,19.50
2007,09,05,14,11,19.60
2007,09,05,14,12,19.50
2007,09,05,14,13,19.50
2007,09,05,14,14,19.50
2007,09,05,14,15,19.40
2007,09,05,14,16,19.30
2007,09,05,14,17,19.20
2007,09,05,14,18,19.20
2007,09,05,14,19,19.30
2007,09,05,14,20,19.30
2007,09,05,14,21,19.20
2007,09,05,14,22,19.20
2007,09,05,14,23,19.20
2007,09,05,14,24,19.20
2007,09,05,14,25,19.20
2007,09,05,14,26,19.20
2007,09,05,14,27,19.30
2007,09,05,14,28,19.40
2007,09,05,14,29,19.40
2007,09,05,14,30,19.50
2007,09,05,14,31,19.40
2007,09,05,14,32,19.40
2007,09,05,14,33,19.30
2007,09,05,14,34,19.30
2007,09,05,14,35,19.20
2007,09,05,14,36,19.20
2007,09,05,14,37,19.10
2007,09,05,14,38,19.10
2007,09,05,14,39,19.10
2007,09,05,14,40,19.00
2007,09,05,14,41,18.90
2007,09,05,14,42,18.90
2007,09,05,14,43,18.90
2007,09,05,14,44,19.10
2007,09,05,14,45,19.10
2007,09,05,14,46,19.10
2007,09,05,14,47,19.10
2007,09,05,14,48,19.10
2007,09,05,14,49,19.10
2007,09,05,14,50,19.10
2007,09,05,14,51,19.10
2007,09,05,14,52,19.10
2007,09,05,14,53,19.10
2007,09,05,14,54,19.20
2007,09,05,14,55,19.20
2007,09,05,14,56,19.10
2007,09,05,14,57,19.10
2007,09,05,14,58,19.10
2007,09,05,14,59,19.10
2007,09,05,15,00,19.10
2007,09,05,15,01,19.30
2007,09,05,15,02,19.30
2007,09,05,15,03,19.30
2007,09,05,15,04,19.20
2007,09,05,15,05,19.10
2007,09,05,15,06,19.20
2007,09,05,15,07,19.30
2007,09,05,15,08,19.30
2007,09,05,15,09,19.30
2007,09,05,15,10,19.40
2007,09,05,15,11,19.30
2007,09,05,15,12,19.30
2007,09,05,15,13,19.40
2007,09,05,15,14,19.40
2007,09,05,15,15,19.40
2007,09,05,15,16,19.50
2007,09,05,15,17,19.60
2007,09,05,15,18,19.60
2007,09,05,15,19,19.70
2007,09,05,15,20,19.80
2007,09,05,15,21,19.80
2007,09,05,15,22,19.70
2007,09,05,15,23,19.70
2007,09,05,15,24,19.80
2007,09,05,15,25,19.80
2007,09,05,15,26,19.70
2007,09,05,15,27,19.60
2007,09,05,15,28,19.50
2007,09,05,15,29,19.50
2007,09,05,15,30,19.40
2007,09,05,15,31,19.50
2007,09,05,15,32,19.50
2007,09,05,15,33,19.50
2007,09,05,15,34,19.60
2007,09,05,15,35,19.60
2007,09,05,15,36,19.60
2007,09,05,15,37,19.70
2007,09,05,15,38,19.80
2007,09,05,15,39,20.00
2007,09,05,15,40,20.10
2007,09,05,15,41,20.10
2007,09,05,15,42,20.00
2007,09,05,15,43,19.90
2007,09,05,15,44,19.90
2007,09,05,15,45,19.90
2007,09,05,15,46,19.80
2007,09,05,15,47,19.70
2007,09,05,15,48,19.70
2007,09,05,15,49,19.70
2007,09,05,15,50,19.70
2007,09,05,15,51,19.70
2007,09,05,15,52,19.70
2007,09,05,15,53,19.70
2007,09,05,15,54,19.60
2007,09,05,15,55,19.60
2007,09,05,15,56,19.60
2007,09,05,15,57,19.50
2007,09,05,15,58,19.40
2007,09,05,15,59,19.20
2007,09,05,16,00,19.10
2007,09,05,16,01,19.10
2007,09,05,16,02,19.10
2007,09,05,16,03,19.10
2007,09,05,16,04,19.10
2007,09,05,16,05,19.10
2007,09,05,16,06,18.90
2007,09,05,16,07,18.90
2007,09,05,16,08,18.80
2007,09,05,16,09,18.70
2007,09,05,16,10,18.50
2007,09,05,16,11,18.30
2007,09,05,16,12,18.20
2007,09,05,16,13,18.10
2007,09,05,16,14,17.90
2007,09,05,16,15,17.80
2007,09,05,16,16,17.70
2007,09,05,16,17,17.60
2007,09,05,16,18,17.50
2007,09,05,16,19,17.60
2007,09,05,16,20,17.50
2007,09,05,16,21,17.50
2007,09,05,16,22,17.50
2007,09,05,16,23,17.60
2007,09,05,16,24,17.60
2007,09,05,16,25,17.60
2007,09,05,16,26,17.60
2007,09,05,16,27,17.60
2007,09,05,16,28,17.60
2007,09,05,16,29,17.70
2007,09,05,16,30,17.60
2007,09,05,16,31,17.60
2007,09,05,16,32,17.40
2007,09,05,16,33,17.40
2007,09,05,16,34,17.40
2007,09,05,16,35,17.20
2007,09,05,16,36,17.10
2007,09,05,16,37,16.90
2007,09,05,16,38,16.50
2007,09,05,16,39,16.30
2007,09,05,16,40,16.20
2007,09,05,16,41,16.10
2007,09,05,16,42,16.10
2007,09,05,16,43,16.10
2007,09,05,16,44,15.70
2007,09,05,16,45,15.60
2007,09,05,16,46,15.50
2007,09,05,16,47,15.40
2007,09,05,16,48,15.30
2007,09,05,16,49,15.30
2007,09,05,16,50,15.30
2007,09,05,16,51,15.30
2007,09,05,16,52,15.30
2007,09,05,16,53,15.20
2007,09,05,16,54,15.20
2007,09,05,16,55,15.10
2007,09,05,16,56,15.10
2007,09,05,16,57,15.10
2007,09,05,16,58,15.10
2007,09,05,16,59,15.10
2007,09,05,17,00,15.00
2007,09,05,17,01,15.10
2007,09,05,17,02,15.20
2007,09,05,17,03,15.30
2007,09,05,17,04,15.30
2007,09,05,17,05,15.30
2007,09,05,17,06,15.40
2007,09,05,17,07,15.40
2007,09,05,17,08,15.40
2007,09,05,17,09,15.40
2007,09,05,17,10,15.40
2007,09,05,17,11,15.40
2007,09,05,17,12,15.40
2007,09,05,17,13,15.60
2007,09,05,17,14,15.70
2007,09,05,17,15,15.70
2007,09,05,17,16,15.80
2007,09,05,17,17,15.80
2007,09,05,17,18,15.80
2007,09,05,17,19,15.90